EW9605 Weather Reports


Display with metric or nautical units.
time (UTC)temp
F
wind
direction
speed
MPH
gust
MPH
rain 1hr
in
rain 24hr
in
rain mn
in
humidity
%
barometer
mb
20260509182628 92 219 9.0 14.0 0.00 0.00 0.00 51 1011.3
20260509182147 92 211 4.0 7.0 0.00 0.00 0.00 51 1011.2
20260509181626 92 264 6.0 17.0 0.00 0.00 0.00 51 1011.3
20260509181124 93 219 8.0 11.0 0.00 0.00 0.00 50 1011.5
20260509180643 93 227 3.0 9.0 0.00 0.00 0.00 51 1011.4
20260509180122 93 219 6.0 10.0 0.00 0.00 0.00 51 1011.2
20260509175620 93 196 7.0 11.0 0.00 0.00 0.00 49 1011.5
20260509175139 94 222 3.0 14.0 0.00 0.00 0.00 51 1011.5
20260509174617 94 220 4.0 8.0 0.00 0.00 0.00 49 1011.4
20260509174116 94 214 1.0 3.0 0.00 0.00 0.00 49 1011.4
20260509173635 93 179 4.0 7.0 0.00 0.00 0.00 52 1011.4
20260509173133 93 214 4.0 7.0 0.00 0.00 0.00 52 1011.5
20260509172632 93 237 10.0 14.0 0.00 0.00 0.00 51 1011.5
20260509172152 93 180 4.0 7.0 0.00 0.00 0.00 53 1011.5
20260509171650 92 222 4.0 8.0 0.00 0.00 0.00 52 1011.6
20260509171128 92 215 6.0 10.0 0.00 0.00 0.00 51 1011.6
20260509170627 93 207 5.0 9.0 0.00 0.00 0.00 52 1011.6
20260509170126 92 203 4.0 6.0 0.00 0.00 0.00 52 1011.4
20260509165625 92 238 1.0 4.0 0.00 0.00 0.00 53 1011.7
20260509165124 92 225 3.0 6.0 0.00 0.00 0.00 53 1011.5
20260509164622 91 193 1.0 2.0 0.00 0.00 0.00 59 1011.8
20260509164121 91 156 0.0 1.0 0.00 0.00 0.00 58 1011.8
20260509163640 91 209 1.0 3.0 0.00 0.00 0.00 57 1012.0
20260509163138 91 162 1.0 2.0 0.00 0.00 0.00 61 1012.0
20260509162637 90 207 2.0 4.0 0.00 0.00 0.00 60 1012.0
20260509162136 90 202 1.0 8.0 0.00 0.00 0.00 59 1012.0
20260509161634 90 0.0 0.0 0.00 0.00 0.00 62 1012.1
20260509161153 90 215 2.0 6.0 0.00 0.00 0.00 62 1012.3
20260509160652 89 0.0 0.0 0.00 0.00 0.00 62 1012.4
20260509160130 89 0.0 0.0 0.00 0.00 0.00 64 1012.3
20260509155629 89 0.0 0.0 0.00 0.00 0.00 67 1012.5
20260509155128 88 0.0 0.0 0.00 0.00 0.00 66 1012.4
20260509154626 88 0.0 0.0 0.00 0.00 0.00 65 1012.6
20260509154125 88 0.0 0.0 0.00 0.00 0.00 65 1012.2
20260509153623 88 0.0 0.0 0.00 0.00 0.00 66 1012.4
20260509153122 88 144 0.0 1.0 0.00 0.00 0.00 65 1012.5
20260509152621 88 0.0 0.0 0.00 0.00 0.00 65 1012.5
20260509152140 87 147 0.0 2.0 0.00 0.00 0.00 66 1012.5
20260509151659 87 172 0.0 2.0 0.00 0.00 0.00 66 1012.6
20260509151117 86 0.0 0.0 0.00 0.00 0.00 65 1012.7
20260509150616 86 179 1.0 3.0 0.00 0.00 0.00 68 1012.6
20260509150134 86 0.0 0.0 0.00 0.00 0.00 70 1012.9
20260509145653 86 168 1.0 3.0 0.00 0.00 0.00 69 1012.8
20260509145132 86 0.0 0.0 0.00 0.00 0.00 69 1012.9
20260509144630 85 174 2.0 6.0 0.00 0.00 0.00 69 1012.6
20260509144149 85 0.0 0.0 0.00 0.00 0.00 68 1012.6
20260509143628 85 0.0 0.0 0.00 0.00 0.00 68 1012.9
20260509143126 85 0.0 0.0 0.00 0.00 0.00 68 1012.5
20260509142625 85 116 1.0 2.0 0.00 0.00 0.00 68 1012.5
20260509142124 85 0.0 0.0 0.00 0.00 0.00 71 1012.6
20260509141622 84 0.0 0.0 0.00 0.00 0.00 73 1012.5
20260509141121 84 170 1.0 2.0 0.00 0.00 0.00 74 1012.5
20260509140620 83 0.0 0.0 0.00 0.00 0.00 75 1012.6
20260509140119 83 0.0 0.0 0.00 0.00 0.00 77 1012.5
20260509135618 82 0.0 0.0 0.00 0.00 0.00 77 1012.4
20260509135116 82 0.0 0.0 0.00 0.00 0.00 77 1012.4
20260509134655 81 0.0 0.0 0.00 0.00 0.00 78 1012.3
20260509134133 81 0.0 0.0 0.00 0.00 0.00 76 1012.2
20260509133632 81 0.0 0.0 0.00 0.00 0.00 79 1012.3
20260509133211 80 0.0 0.0 0.00 0.00 0.00 80 1012.3
20260509132630 80 0.0 0.0 0.00 0.00 0.00 79 1012.2
20260509132149 80 0.0 0.0 0.00 0.00 0.00 80 1012.4
20260509131627 80 0.0 0.0 0.00 0.00 0.00 80 1012.3
20260509131146 80 0.0 0.0 0.00 0.00 0.00 80 1012.2
20260509130625 80 0.0 0.0 0.00 0.00 0.00 82 1012.3
20260509130124 79 75 1.0 2.0 0.00 0.00 0.00 85 1012.2
20260509125623 79 0.0 0.0 0.00 0.00 0.00 87 1012.1
20260509125121 78 0.0 0.0 0.00 0.00 0.00 87 1012.1
20260509124620 77 0.0 0.0 0.00 0.00 0.00 87 1012.4
20260509124118 77 94 0.0 1.0 0.00 0.00 0.00 87 1012.2
20260509123617 77 0.0 0.0 0.00 0.00 0.00 88 1012.3
20260509123115 77 0.0 0.0 0.00 0.00 0.00 88 1012.1
20260509122635 77 0.0 0.0 0.00 0.00 0.00 88 1012.1
20260509122133 77 0.0 0.0 0.00 0.00 0.00 88 1012.0
20260509121632 77 66 1.0 3.0 0.00 0.00 0.00 89 1012.0
20260509121130 77 71 1.0 3.0 0.00 0.00 0.00 88 1012.0
20260509120629 77 77 1.0 2.0 0.00 0.00 0.00 90 1011.9
20260509120127 77 70 3.0 4.0 0.00 0.00 0.00 90 1011.6
20260509115626 77 72 1.0 2.0 0.00 0.00 0.00 91 1011.7
20260509115124 76 70 1.0 1.0 0.00 0.00 0.00 94 1011.6
20260509114623 76 77 0.0 1.0 0.00 0.00 0.00 95 1011.5
20260509114122 76 77 2.0 3.0 0.00 0.00 0.00 95 1011.4
20260509113621 75 0.0 0.0 0.00 0.00 0.00 96 1011.5
20260509113119 75 91 0.0 1.0 0.00 0.00 0.00 96 1011.4
20260509112618 74 0.0 0.0 0.00 0.00 0.00 96 1011.4
20260509112117 74 0.0 0.0 0.00 0.00 0.00 96 1011.3
20260509111635 74 0.0 0.0 0.00 0.00 0.00 95 1011.5
20260509111134 74 0.0 0.0 0.00 0.00 0.00 95 1011.4
20260509110633 74 0.0 0.0 0.00 0.00 0.00 95 1011.4
20260509110131 74 0.0 0.0 0.00 0.00 0.00 95 1011.4
20260509105630 74 0.0 0.0 0.00 0.00 0.00 95 1011.3
20260509105129 74 0.0 0.0 0.00 0.00 0.00 95 1011.1
20260509104627 74 0.0 0.0 0.00 0.00 0.00 95 1011.1
20260509104126 73 0.0 0.0 0.00 0.00 0.00 94 1011.2
20260509103625 73 0.0 0.0 0.00 0.00 0.00 94 1011.0
20260509103123 73 0.0 0.0 0.00 0.00 0.00 94 1011.3
20260509102622 73 0.0 0.0 0.00 0.00 0.00 94 1011.1
20260509102141 73 0.0 0.0 0.00 0.00 0.00 94 1011.1
20260509101619 73 0.0 0.0 0.00 0.00 0.00 94 1011.1
20260509101118 74 0.0 0.0 0.00 0.00 0.00 94 1011.1
20260509100617 74 0.0 0.0 0.00 0.00 0.00 94 1011.2
20260509100116 74 0.0 0.0 0.00 0.00 0.00 95 1011.4
20260509095715 74 0.0 0.0 0.00 0.00 0.00 94 1011.3
20260509095134 74 0.0 0.0 0.00 0.00 0.00 94 1011.3
20260509094633 74 0.0 0.0 0.00 0.00 0.00 94 1011.4
20260509094131 74 0.0 0.0 0.00 0.00 0.00 94 1011.3
20260509093650 74 0.0 0.0 0.00 0.00 0.00 94 1011.2
20260509093129 74 0.0 0.0 0.00 0.00 0.00 94 1011.1
20260509092627 74 0.0 0.0 0.00 0.00 0.00 94 1011.1
20260509092126 74 0.0 0.0 0.00 0.00 0.00 94 1011.0
20260509091624 74 0.0 0.0 0.00 0.00 0.00 94 1011.2
20260509091123 74 0.0 0.0 0.00 0.00 0.00 94 1011.2
20260509090642 74 0.0 0.0 0.00 0.00 0.00 94 1011.1
20260509090141 74 0.0 0.0 0.00 0.00 0.00 94 1011.1
20260509085619 74 0.0 0.0 0.00 0.00 0.00 94 1011.1
20260509085118 74 0.0 0.0 0.00 0.00 0.00 94 1011.3
20260509084657 74 0.0 0.0 0.00 0.00 0.00 95 1011.2
20260509084135 74 0.0 0.0 0.00 0.00 0.00 95 1011.2
20260509083634 74 0.0 0.0 0.00 0.00 0.00 95 1011.4
20260509083133 74 0.0 0.0 0.00 0.00 0.00 94 1011.3
20260509082631 74 0.0 0.0 0.00 0.00 0.00 94 1011.2
20260509082130 74 0.0 0.0 0.00 0.00 0.00 94 1011.3
20260509081628 74 0.0 0.0 0.00 0.00 0.00 94 1011.5
20260509081148 74 0.0 0.0 0.00 0.00 0.00 94 1011.4
20260509080619 74 0.0 0.0 0.00 0.00 0.00 94 1011.3
20260509080118 74 0.0 0.0 0.00 0.00 0.00 94 1011.5
20260509075617 74 0.0 0.0 0.00 0.00 0.00 94 1011.6
20260509075135 75 0.0 0.0 0.00 0.00 0.00 94 1011.5
20260509074634 75 0.0 0.0 0.00 0.00 0.00 94 1011.6
20260509074132 75 0.0 0.0 0.00 0.00 0.00 94 1011.6
20260509073631 75 0.0 0.0 0.00 0.00 0.00 94 1011.7
20260509073150 74 78 0.0 1.0 0.00 0.00 0.00 94 1011.7
20260509072628 74 53 2.0 3.0 0.00 0.00 0.00 94 1011.6
20260509072127 74 0.0 0.0 0.00 0.00 0.00 94 1011.8
20260509071625 74 0.0 0.0 0.00 0.00 0.00 94 1011.9
20260509071144 74 0.0 0.0 0.00 0.00 0.00 94 1011.8
20260509070623 74 0.0 0.0 0.00 0.00 0.00 93 1012.1
20260509070121 74 0.0 0.0 0.00 0.00 0.00 93 1012.0
20260509065621 74 0.0 0.0 0.00 0.00 0.00 93 1011.9
20260509065119 75 0.0 0.0 0.00 0.00 0.00 93 1012.2
20260509064638 75 0.0 0.0 0.00 0.00 0.00 93 1012.1
20260509064137 75 0.0 0.0 0.00 0.00 0.00 93 1012.2
20260509063635 75 0.0 0.0 0.00 0.00 0.00 92 1012.2
20260509063134 75 0.0 0.0 0.00 0.00 0.00 92 1012.3
20260509062633 75 87 1.0 2.0 0.00 0.00 0.00 92 1012.4
20260509062131 75 0.0 0.0 0.00 0.00 0.00 92 1012.3
20260509061630 75 82 1.0 2.0 0.00 0.00 0.00 92 1012.4
20260509061129 75 0.0 0.0 0.00 0.00 0.00 92 1012.5
20260509060627 75 0.0 0.0 0.00 0.00 0.00 92 1012.6
20260509060126 76 0.0 0.0 0.00 0.00 0.00 92 1012.7
20260509055625 76 0.0 0.0 0.00 0.00 0.00 92 1012.6
20260509055124 76 0.0 0.0 0.00 0.00 0.00 92 1012.7
20260509054622 76 0.0 0.0 0.00 0.00 0.00 92 1012.8
20260509054141 76 0.0 0.0 0.00 0.00 0.00 91 1012.7
20260509053620 76 0.0 0.0 0.00 0.00 0.00 91 1012.8
20260509053139 76 0.0 0.0 0.00 0.00 0.00 91 1012.7
20260509052617 76 0.0 0.0 0.00 0.00 0.00 91 1012.8
20260509052116 76 0.0 0.0 0.00 0.00 0.00 90 1012.8
20260509051635 76 0.0 0.0 0.00 0.00 0.00 90 1012.9
20260509051133 77 0.0 0.0 0.00 0.00 0.00 90 1012.9
20260509050632 77 0.0 0.0 0.00 0.00 0.00 90 1012.9
20260509050151 77 0.0 0.0 0.00 0.00 0.00 90 1013.1
20260509045629 77 0.0 0.0 0.00 0.00 0.00 89 1013.3
20260509045128 77 0.0 0.0 0.00 0.00 0.00 89 1013.0
20260509044626 78 0.0 0.0 0.00 0.00 0.00 88 1013.0
20260509044125 78 0.0 0.0 0.00 0.00 0.00 86 1012.9
20260509043624 78 17 0.0 1.0 0.00 0.00 0.00 86 1013.2
20260509043123 78 0.0 0.0 0.00 0.00 0.00 86 1013.1
20260509042622 78 0.0 0.0 0.00 0.00 0.00 85 1013.1
20260509042120 78 0.0 0.0 0.00 0.00 0.00 86 1013.0
20260509041619 78 0.0 0.0 0.00 0.00 0.00 86 1013.1
20260509041117 78 0.0 0.0 0.00 0.00 0.00 86 1013.2
20260509040617 78 299 1.0 3.0 0.00 0.00 0.00 86 1013.2
20260509040135 78 0.0 0.0 0.00 0.00 0.00 86 1013.1
20260509035633 78 0.0 0.0 0.00 0.00 0.00 86 1013.2
20260509035132 78 329 0.0 2.0 0.00 0.00 0.00 86 1013.1
20260509034631 78 296 2.0 8.0 0.00 0.00 0.00 86 1013.2
20260509034150 79 332 3.0 6.0 0.00 0.00 0.00 86 1013.2
20260509033629 79 306 1.0 3.0 0.00 0.00 0.00 86 1013.2
20260509033128 79 0.0 0.0 0.00 0.00 0.00 85 1013.2
20260509032626 79 314 2.0 4.0 0.00 0.00 0.00 85 1013.0
20260509032125 79 301 1.0 4.0 0.00 0.00 0.00 84 1013.0
20260509031623 79 0.0 0.0 0.00 0.00 0.00 85 1012.9
20260509031122 79 324 1.0 2.0 0.00 0.00 0.00 84 1013.1
20260509030620 79 323 3.0 4.0 0.00 0.00 0.00 84 1013.2
20260509030119 79 0.0 0.0 0.00 0.00 0.00 83 1013.0
20260509025618 79 0.0 0.0 0.00 0.00 0.00 83 1013.1
20260509025116 79 0.0 0.0 0.00 0.00 0.00 83 1013.1
20260509024615 79 0.0 0.0 0.00 0.00 0.00 82 1013.0
20260509024134 79 322 4.0 6.0 0.00 0.00 0.00 82 1012.9
20260509023633 79 0.0 0.0 0.00 0.00 0.00 82 1013.0
20260509023131 79 0.0 0.0 0.00 0.00 0.00 82 1013.0
20260509022631 79 308 3.0 4.0 0.00 0.00 0.00 82 1012.8
20260509022129 79 327 0.0 4.0 0.00 0.00 0.00 82 1012.7
20260509021648 79 0.0 0.0 0.00 0.00 0.00 81 1012.8
20260509021126 79 315 3.0 8.0 0.00 0.00 0.00 80 1012.6
20260509020625 79 0.0 0.0 0.00 0.00 0.00 80 1012.6
20260509020126 79 0.0 0.0 0.00 0.00 0.00 79 1012.4
20260509015622 80 0.0 0.0 0.00 0.00 0.00 78 1012.5
20260509015121 80 0.0 0.0 0.00 0.00 0.00 78 1012.5
20260509014640 80 314 3.0 4.0 0.00 0.00 0.00 77 1012.4
20260509014118 80 0.0 0.0 0.00 0.00 0.00 76 1012.4
20260509013617 80 0.0 0.0 0.00 0.00 0.00 75 1012.2
20260509013116 80 0.0 0.0 0.00 0.00 0.00 75 1012.2
20260509012635 80 0.0 0.0 0.00 0.00 0.00 75 1012.0
20260509012154 80 0.0 0.0 0.00 0.00 0.00 75 1012.0
20260509011632 80 0.0 0.0 0.00 0.00 0.00 75 1012.1
20260509011131 80 0.0 0.0 0.00 0.00 0.00 75 1011.8
20260509010630 81 0.0 0.0 0.00 0.00 0.00 75 1011.9
20260509010129 81 310 2.0 3.0 0.00 0.00 0.00 75 1011.8
20260509005648 81 304 3.0 3.0 0.00 0.00 0.00 74 1011.8
20260509005126 81 298 3.0 8.0 0.00 0.00 0.00 74 1011.8
20260509004625 81 0.0 0.0 0.00 0.00 0.00 73 1011.5
20260509004143 82 274 1.0 3.0 0.00 0.00 0.00 72 1011.8
20260509003642 82 295 4.0 7.0 0.00 0.00 0.00 72 1011.7
20260509003141 82 271 0.0 6.0 0.00 0.00 0.00 70 1011.4
20260509002619 83 0.0 0.0 0.00 0.00 0.00 68 1011.5
20260509002118 83 0.0 0.0 0.00 0.00 0.00 63 1011.5
20260509001617 83 288 0.0 2.0 0.00 0.00 0.00 62 1011.3
20260509001136 83 250 0.0 3.0 0.00 0.00 0.00 61 1011.3
20260509000634 84 271 2.0 6.0 0.00 0.00 0.00 61 1011.3
20260509000133 84 255 4.0 6.0 0.00 0.00 0.00 61 1011.0
20260508235652 85 257 2.0 3.0 0.00 0.00 0.00 60 1010.8
20260508235130 85 262 2.0 6.0 0.00 0.00 0.00 59 1011.0
20260508234629 86 258 4.0 7.0 0.00 0.00 0.00 58 1011.0
20260508234148 87 291 3.0 4.0 0.00 0.00 0.00 56 1010.9
20260508233626 87 271 4.0 8.0 0.00 0.00 0.00 54 1010.9
20260508233146 88 240 4.0 7.0 0.00 0.00 0.00 51 1010.9
20260508232624 89 257 3.0 4.0 0.00 0.00 0.00 49 1010.5
20260508232123 90 242 2.0 9.0 0.00 0.00 0.00 46 1010.5
20260508231621 91 244 2.0 4.0 0.00 0.00 0.00 47 1010.5
20260508231140 91 263 3.0 4.0 0.00 0.00 0.00 46 1010.6
20260508230619 91 253 4.0 8.0 0.00 0.00 0.00 47 1010.5
20260508230138 90 288 4.0 7.0 0.00 0.00 0.00 48 1010.4
20260508225616 91 279 3.0 7.0 0.00 0.00 0.00 48 1010.6
20260508225135 91 277 4.0 4.0 0.00 0.00 0.00 49 1010.4
20260508224634 91 307 1.0 3.0 0.00 0.00 0.00 49 1010.3
20260508224154 91 239 2.0 6.0 0.00 0.00 0.00 49 1010.2
20260508223651 91 265 5.0 8.0 0.00 0.00 0.00 50 1010.1
20260508223130 90 276 5.0 9.0 0.00 0.00 0.00 50 1010.2
20260508222628 91 270 3.0 7.0 0.00 0.00 0.00 49 1010.0
20260508222147 91 252 6.0 9.0 0.00 0.00 0.00 50 1010.1
20260508221626 91 281 5.0 11.0 0.00 0.00 0.00 50 1010.1
20260508221124 91 260 5.0 10.0 0.00 0.00 0.00 49 1010.0
20260508220623 91 286 4.0 7.0 0.00 0.00 0.00 50 1010.1
20260508220122 91 268 3.0 6.0 0.00 0.00 0.00 51 1010.2
20260508215620 92 261 3.0 6.0 0.00 0.00 0.00 50 1010.2
20260508215119 91 223 3.0 8.0 0.00 0.00 0.00 51 1010.3
20260508214618 92 258 4.0 6.0 0.00 0.00 0.00 51 1010.2
20260508214136 92 292 3.0 9.0 0.00 0.00 0.00 50 1010.3
20260508213615 93 270 6.0 9.0 0.00 0.00 0.00 49 1010.3
20260508213134 93 286 3.0 7.0 0.00 0.00 0.00 51 1010.2
20260508212632 93 258 4.0 9.0 0.00 0.00 0.00 51 1010.1
20260508212131 93 249 4.0 10.0 0.00 0.00 0.00 51 1010.2
20260508211630 93 273 3.0 6.0 0.00 0.00 0.00 51 1010.2
20260508211129 92 225 5.0 9.0 0.00 0.00 0.00 51 1010.3
20260508210627 92 289 4.0 7.0 0.00 0.00 0.00 52 1009.9
20260508210126 92 228 2.0 6.0 0.00 0.00 0.00 52 1010.1
20260508205625 92 258 2.0 4.0 0.00 0.00 0.00 50 1010.1
20260508205123 92 288 5.0 8.0 0.00 0.00 0.00 53 1010.2
20260508204622 92 313 3.0 4.0 0.00 0.00 0.00 52 1010.4
20260508203620 93 250 0.0 4.0 0.00 0.00 0.00 49 1010.3
20260508203118 92 0.0 0.0 0.00 0.00 0.00 51 1010.5
20260508202617 92 0.0 0.0 0.00 0.00 0.00 49 1010.5
20260508202116 92 237 1.0 6.0 0.00 0.00 0.00 50 1010.4
20260508201656 92 260 5.0 14.0 0.00 0.00 0.00 52 1010.4
20260508201153 91 0.0 0.0 0.00 0.00 0.00 53 1010.6
20260508200632 91 286 0.0 1.0 0.00 0.00 0.00 48 1010.8
20260508200131 91 56 2.0 4.0 0.00 0.00 0.00 49 1010.9
20260508195650 90 47 0.0 2.0 0.00 0.00 0.00 52 1010.8
20260508195128 91 0.0 0.0 0.00 0.00 0.00 49 1010.9
20260508194627 91 303 5.0 8.0 0.00 0.00 0.00 48 1010.9
20260508194126 91 24 0.0 2.0 0.00 0.00 0.00 50 1011.2
20260508193624 91 309 2.0 4.0 0.00 0.00 0.00 49 1011.4
20260508193224 91 0.0 0.0 0.00 0.00 0.00 50 1011.3
20260508192622 91 316 2.0 6.0 0.00 0.00 0.00 50 1011.7
20260508192121 91 313 0.0 1.0 0.00 0.00 0.00 51 1011.6
20260508191619 90 0.0 0.0 0.00 0.00 0.00 51 1011.7
20260508191118 90 0.0 0.0 0.00 0.00 0.00 51 1011.9
20260508190616 90 0.0 0.0 0.00 0.00 0.00 54 1011.8
20260508190135 89 0.0 0.0 0.00 0.00 0.00 53 1011.8
20260508185633 89 0.0 0.0 0.00 0.00 0.00 52 1011.8
20260508185132 90 58 0.0 1.0 0.00 0.00 0.00 53 1011.8
20260508184631 90 294 2.0 3.0 0.00 0.00 0.00 52 1012.0
20260508184130 90 311 1.0 3.0 0.00 0.00 0.00 53 1011.9
20260508183628 90 20 1.0 6.0 0.00 0.00 0.00 58 1012.2
20260508183127 89 239 3.0 7.0 0.00 0.00 0.00 57 1012.2